Tracking 28790 objects as of 18-Apr-2024
HD Live streaming from Space Station
objects crossing your sky now

CS 3B

Track CS 3B now!
CS 3B is classified as:


NORAD ID: 19508
Int'l Code: 1988-086A
Perigee: 36,076.7 km
Apogee: 36,101.6 km
Inclination: 15.0 °
Period: 1,451.2 minutes
Semi major axis: 42460 km
RCS: 6.3096 m2 (large)
Launch date: September 16, 1988
Source: Japan (JPN)
Launch site: TANEGASHIMA SPACE CENTER (TNSTA)
Your satellite tracking list
Your tracking list is empty




NASA's NSSDC Master Catalog

Two Line Element Set (TLE):
1 19508U 88086A   24108.96126260 -.00000189  00000-0  00000-0 0  9999
2 19508  14.9955 359.6445 0002928 351.6638 200.3243  0.99227078129412
Source of the keplerian elements: AFSPC